Belize, Belize

4:48 PM CST on February 13, 2016 (GMT -0600)
Philip S W Goldson International

Weather History for MZBZ - December, 2014

Change the Weather History Date:

Monday, December 8, 2014

  Actual Average Record
Temperature  
Mean Temperature 74 °F -  
Max Temperature 78 °F - - (-1)
Min Temperature 70 °F 68 °F - (-1)
Cooling Degree Days 9    
Growing Degree Days 24 (Base 50)    
Moisture  
Dew Point 70 °F    
Average Humidity 86    
Maximum Humidity 94    
Minimum Humidity 68    
Precipitation  
Precipitation 0.01 in 0.22 in - ()
Sea Level Pressure  
Sea Level Pressure 30.04 in    
Wind  
Wind Speed 3 mph ()    
Max Wind Speed 10 mph    
Max Gust Speed -    
Visibility 8.0 miles    
Events Rain    
Averages and records for this station are not official NWS values.
T = Trace of Precipitation, MM = Missing Value Source: Averaged Metar Reports

Daily Weather History Graph

Daily Weather History Graph

Search for Another Location

Airport or City:

Trip Planner

Search our weather history database for the weather conditions in past years. The results will help you decide how hot, cold, wet, or windy it might be!

Date:

Astronomy

Dec. 08, 2014 Rise Set
Actual Time 6:11 AM CST 5:18 PM CST
Civil Twilight 5:48 AM CST 5:42 PM CST
Nautical Twilight 5:21 AM CST 6:09 PM CST
Astronomical Twilight 4:54 AM CST 6:35 PM CST
Moon 7:30 PM CST (12/8) 7:52 AM CST (12/8)
Length of Visible Light 11h 53m
Length of Day
11h 06m
Waning Gibbous, 95% of the Moon is Illuminated
Dec 8
Waning Gibbous
Dec 14
Last Quarter
Dec 21
New
Dec 28
First Quarter
Jan 4
Full

Hourly Weather History & Observations

Time (CST) Temp. Dew Point Humidity Pressure Visibility Wind Dir Wind Speed Gust Speed Precip Events Conditions
12:00 AM 72 °F 70 °F 92% 30.04 in 12 mi Calm Calm - -   Mostly Cloudy
3:00 AM 72 °F 70 °F 91% 30.01 in 12 mi WNW 5.8 mph - -   Mostly Cloudy
5:00 AM 71.6 °F 69.8 °F 94% 30.01 in 6.2 mi Calm Calm - N/A   Mostly Cloudy
6:00 AM 71 °F 70 °F 94% 30.04 in 12 mi Calm Calm - -   Mostly Cloudy
6:00 AM 71.6 °F 69.8 °F 94% 30.04 in 6.2 mi Calm Calm - N/A   Mostly Cloudy
7:00 AM 71.6 °F 69.8 °F 94% 3.00 in 6.2 mi Calm Calm - N/A Rain Light Rain Showers
8:00 AM 71.6 °F 69.8 °F 94% 30.07 in 6.2 mi Calm Calm - N/A Rain Light Rain Showers
9:00 AM 75 °F 71 °F 84% 30.09 in 11 mi NNW 6.9 mph - -  
9:00 AM 75.2 °F 71.6 °F 89% 30.09 in 6.2 mi NNW 6.9 mph - N/A   Mostly Cloudy
10:00 AM 75.2 °F 71.6 °F 89% 30.08 in 6.2 mi NNW 8.1 mph - N/A   Mostly Cloudy
11:00 AM 75.2 °F 69.8 °F 83% 30.07 in 6.2 mi NW 10.4 mph - N/A   Mostly Cloudy
12:00 PM 76 °F 70 °F 77% 30.06 in 12 mi NW 10.4 mph - -   Partly Cloudy
12:00 PM 77.0 °F 69.8 °F 78% 30.05 in 6.2 mi NW 10.4 mph - N/A   Mostly Cloudy
1:00 PM 77.0 °F 71.6 °F 83% 30.02 in 6.2 mi NNW 5.8 mph - N/A   Mostly Cloudy
2:00 PM 78.8 °F 68.0 °F 69% 30.01 in 6.2 mi NNE 6.9 mph - N/A   Mostly Cloudy
3:00 PM 78 °F 69 °F 68% 30.01 in 12 mi NNW 6.9 mph - -   Mostly Cloudy
3:00 PM 77.0 °F 69.8 °F 78% 30.00 in 6.2 mi NNW 6.9 mph - N/A   Mostly Cloudy
4:00 PM 77.0 °F 69.8 °F 78% 30.00 in 6.2 mi NW 6.9 mph - N/A   Mostly Cloudy
5:00 PM 75.2 °F 69.8 °F 83% 30.02 in 6.2 mi NNW 4.6 mph - N/A   Mostly Cloudy
6:00 PM 74 °F 70 °F 83% 30.03 in 12 mi NW 3.5 mph - -   Mostly Cloudy
6:00 PM 73.4 °F 69.8 °F 88% 30.03 in 6.2 mi NW 3.5 mph - N/A   Mostly Cloudy
7:00 PM 73.4 °F 71.6 °F 94% 30.05 in 6.2 mi Calm Calm - N/A   Mostly Cloudy
8:00 PM 73.4 °F 71.6 °F 94% 30.07 in 6.2 mi West 3.5 mph - N/A   Mostly Cloudy
9:00 PM 72 °F 71 °F 94% 30.09 in 12 mi West 2.3 mph - -   Mostly Cloudy
9:00 PM 71.6 °F 69.8 °F 94% 30.08 in 6.2 mi West 2.3 mph - N/A   Mostly Cloudy